Location: ????????
(55.3155°N, 39.2900°E)
Time: 05:46:44
(UTC+00:00)

Cosmos 2026 Rocket - Visible Passes

Search period start: 13 July 2024 00:00
Search period end: 23 July 2024 00:00
Orbit: 938 x 1001 km, 82.9° (Epoch: 12 July)

Date Brightness Start Highest point End Pass type
(mag) Time Alt. Az. Time Alt. Az. Time Alt. Az.
13 Jul 6.8 22:16:36 10° NNE 22:19:06 12° NE 22:21:37 10° ENE visible
14 Jul 5.3 00:00:15 10° N 00:06:12 44° ENE 00:12:10 10° SE visible
14 Jul 6.6 22:39:16 10° N 22:43:23 18° NE 22:47:31 10° E visible
15 Jul 6.2 23:02:24 10° N 23:07:30 26° ENE 23:12:38 10° ESE visible
16 Jul 7.0 21:42:54 10° NNE 21:44:07 11° NE 21:45:20 10° NE visible
16 Jul 5.5 23:25:42 10° N 23:31:28 37° ENE 23:37:15 10° SE visible
17 Jul 6.6 22:04:57 10° NNE 22:08:28 15° NE 22:12:01 10° E visible
17 Jul 4.8 23:49:08 10° N 23:55:16 55° ENE 00:01:28 10° SSE visible
18 Jul 6.3 22:27:56 10° N 22:32:40 22° NE 22:37:25 10° ESE visible
19 Jul 4.2 00:12:38 10° N 00:18:57 82° E 00:25:18 10° SSE visible
19 Jul 5.7 22:51:11 10° N 22:56:42 31° ENE 23:02:15 10° SE visible
20 Jul 6.6 21:30:44 10° NNE 21:33:32 13° NE 21:36:20 10° ENE visible
20 Jul 5.1 23:14:33 10° N 23:20:35 46° ENE 23:26:39 10° SE visible
21 Jul 6.4 21:53:31 10° N 21:57:48 19° NE 22:02:06 10° E visible
21 Jul 4.4 23:38:02 10° N 23:44:19 69° ENE 23:50:39 10° SSE visible
22 Jul 5.9 22:16:41 10° N 22:21:54 27° ENE 22:27:10 10° ESE visible
